sat.trackr.live / text

‹ back to catalog

STARLINK-4675

NORAD 53601 · 2022-104P

PAYLOAD ACTIVE UNKNOWN

§ Identity

Operator
Country
US
Launch date
2022-08-28
Launch site
AFETR
Launch vehicle
Mass (kg)
RCS (m²)

Purposes: comms

External: N2YO · Heavens-Above · Gunter

§ Orbital elements

Epoch: 2026-09-20T01:28:08.214816Z

Period
93.79 min
Inclination
53.1600°
Eccentricity
0.0001164
Mean motion
15.35396767 rev/d
Perigee alt
458.9 km
Apogee alt
460.5 km
Semi-major
6,837.9 km
B*
3.8795e-5
RAAN
75.7851°
Arg perigee
88.9319°
Mean anomaly
271.1817°
Rev number
22,517

§ Raw data

STARLINK-46751 53601U 22104P   26263.06120619  .00000973  00000+0  38795-4 0  99922 53601  53.1600  75.7851 0001164  88.9319 271.1817 15.35396767225171

JSON: /api/v1/satellites/53601 · /tle

For live sub-satellite position, see the globe view (requires WebGL).

§ Visibility from observer

Set your observer location to see the next 7 days of passes ≥ 10°. The values pass through the URL so the page stays shareable.

No JS? Fill the form by hand. The geolocation button needs JavaScript.